User: anonymous   Login
Location: RyutenAO
(34.8939°N, 134.0022°E)
Time: 13:18:24
(UTC+09:00)
Language:

PCSat - Orbit

View from above orbital plane
View from above orbital plane
View from above satellite
View from above satellite

Ground track
Ground track

The orbit data is extracted from the following two-line orbital elements,

1 26931U 01043C   24060.81863486  .00000225  00000-0  11652-3 0  9992
2 26931  67.0492 251.4934 0005233 276.2582  83.7923 14.31133749170606
Epoch (UTC): 29 February 2024 19:38:50
Eccentricity: 0.0005233
inclination: 67.0492°
perigee height: 784 km
apogee height: 791 km
right ascension of ascending node: 251.4934°
argument of perigee: 276.2582°
revolutions per day: 14.31133749
mean anomaly at epoch: 83.7923°
orbit number at epoch: 17060

The dashed part of the orbit path shows where the satellite is in the earth's shadow,  

DLR